Preview of NWS' New Version of Forecast
This preview is not operational and should not be used for support decisions.

Regional Weather Roundup (RWR)

Issued by National Weather Service (NWS)

                            
000
ASCA42 TJSJ 210310
RWRPR 
PUERTO RICO/U.S. VIRGIN ISLANDS HOURLY WEATHER ROUNDUP
NATIONAL WEATHER SERVICE SAN JUAN PR
1100 PM AST SAT APR 20 2019

PRZ001>002-007>008-010-210400-
PUERTO RICO
  
CITY           SKY/WX    TMP DP  RH WIND       PRES   REMARKS
SAN JUAN LMM   LGT RAIN  79  70  73 SE5       30.09R                  
CEIBA          MOCLDY    81  70  69 MISG      30.10R                  
$$

VIZ001>002-210400-
U.S. VIRGIN ISLANDS
  
CITY           SKY/WX    TMP DP  RH WIND       PRES   REMARKS
CHARLOTTE AMA  CLEAR     79  68  69 E15       30.07R                  
CHRISTIANSTED  PTCLDY    79  68  69 E12       30.07S                  
$$

HOURLY WEATHER ROUNDUP FOR THE NEWS MEDIA
  
CITY           SKY/WX    TMP DP  RH WIND       PRES   REMARKS
ORLANDO        MOCLDY    65  47  52 S6        30.03R                  
NEW YORK       MOCLDY    54  53  97 SE12      29.87F                  
NEWARK         CLOUDY    55  50  83 E7        29.85S                  
CHICAGO        FAIR      50  12  21 N6        29.85R                  
HARTFORD       CLOUDY    57  57 100 S15       29.97F                  
BOSTON         CLOUDY    64  60  87 S13       29.97                   
DALLAS         CLEAR     71  51  49 SE15G24   29.93R                  
PHILADELPHIA   MOCLDY    59  50  72 S9        29.82R                  
LOS ANGELES    MOCLDY    58  52  80 W9        29.98S                  
WASHINGTON DC  MOCLDY    58  39  49 SW8       29.80S